Location: ??????
(56.0120°N, 39.1740°E)
Time: 22:51:13
(UTC+00:00)

ARIANE 5 R/B - Pass Details

Date: 14 April 2026
Orbit: 614 x 648 km, 98.0° (Epoch: 14 September)

Event Time Altitude Azimuth Distance (km) Brightness Sun altitude
Exits shadow 20:26:44 82° 180° (S) 633 2.4 -23.3°
Maximum altitude 20:26:55 88° 253° (WSW) 627 2.4 -23.3°
Drops below altitude 10° 20:31:18 10° 344° (NNW) 2,005 6.3 -23.4°
Sets 20:33:30 0° 345° (NNW) 2,921 7.5 -23.5°
